TimeCST,TemperatureF,Dew PointF,Humidity,Sea Level PressureIn,VisibilityMPH,Wind Direction,Wind SpeedMPH,Gust SpeedMPH,PrecipitationIn,Events,Conditions,WindDirDegrees,DateUTC
12:53 AM,28.9,27.0,92,30.29,10.0,Calm,Calm,-,N/A,,Clear,0,2013-03-03 06:53:00
1:53 AM,28.0,26.1,92,30.28,10.0,Calm,Calm,-,N/A,,Clear,0,2013-03-03 07:53:00
3:53 AM,28.0,26.1,92,30.26,10.0,Calm,Calm,-,N/A,,Clear,0,2013-03-03 09:53:00
5:53 AM,28.0,26.1,92,30.27,10.0,Calm,Calm,-,N/A,,Clear,0,2013-03-03 11:53:00
6:53 AM,27.0,26.1,96,30.28,10.0,Calm,Calm,-,N/A,,Clear,0,2013-03-03 12:53:00
7:53 AM,33.1,30.9,92,30.29,10.0,Calm,Calm,-,N/A,,Clear,0,2013-03-03 13:53:00
8:53 AM,46.0,30.0,54,30.30,10.0,South,4.6,-,N/A,,Clear,180,2013-03-03 14:53:00
9:53 AM,52.0,25.0,35,30.29,10.0,South,8.1,-,N/A,,Clear,190,2013-03-03 15:53:00
10:53 AM,55.9,26.1,32,30.26,10.0,SSE,6.9,-,N/A,,Clear,150,2013-03-03 16:53:00
11:53 AM,61.0,28.0,29,30.23,10.0,SSW,6.9,-,N/A,,Clear,210,2013-03-03 17:53:00
12:53 PM,64.0,28.9,27,30.18,10.0,South,13.8,17.3,N/A,,Clear,170,2013-03-03 18:53:00
1:53 PM,66.0,28.9,25,30.14,10.0,South,12.7,18.4,N/A,,Clear,170,2013-03-03 19:53:00
2:53 PM,66.9,30.0,25,30.11,10.0,South,11.5,-,N/A,,Clear,190,2013-03-03 20:53:00
3:53 PM,68.0,30.9,25,30.09,10.0,SSW,16.1,20.7,N/A,,Clear,200,2013-03-03 21:53:00
4:53 PM,68.0,32.0,26,30.06,10.0,South,15.0,-,N/A,,Clear,170,2013-03-03 22:53:00
5:53 PM,66.0,36.0,33,30.05,10.0,South,12.7,21.9,N/A,,Clear,180,2013-03-03 23:53:00
6:53 PM,60.1,39.0,46,30.05,10.0,SSE,13.8,-,N/A,,Clear,160,2013-03-04 00:53:00
7:53 PM,57.0,39.9,53,30.05,10.0,SSE,11.5,-,N/A,,Clear,160,2013-03-04 01:53:00
8:53 PM,55.9,42.1,60,30.04,10.0,SSE,13.8,-,N/A,,Clear,160,2013-03-04 02:53:00
9:53 PM,54.0,43.0,66,30.04,10.0,SSE,10.4,-,N/A,,Clear,160,2013-03-04 03:53:00
10:53 PM,53.1,45.0,74,30.02,10.0,SSE,11.5,-,N/A,,Clear,160,2013-03-04 04:53:00
11:53 PM,55.0,46.9,74,29.99,10.0,South,13.8,-,N/A,,Clear,170,2013-03-04 05:53:00